VYA605 GVAC-SBFZ

Flight info

Callsign VYA605
Flight time 3h 45m
Altitude 38000
Route LISOS1A MELUT UW46 KEPAS/N0460F390 UN741 PINRU/N0458F400 UN741 DEVUN DCT FLZ
Aircraft CL60/M-SADE3FGHIJ3J4J7P2RWXY/HB1D1

Departure

Time 2026-04-29 19:12
Airport Amílcar Cabral International Airport (GVAC)

Arrival

Time 2026-04-29 22:57
Airport Pinto Martins International Airport (SBFZ)
Time Latitude Longitude Altitude Speed Heading
2026-04-29 18:55 16.73560 -22.94489 182 ft 0 kts 90°
2026-04-29 19:07 16.73560 -22.94487 182 ft 3 kts 114°
2026-04-29 19:07 16.73495 -22.94519 184 ft 16 kts 213°
2026-04-29 19:08 16.73365 -22.94592 187 ft 23 kts 194°
2026-04-29 19:08 16.73200 -22.94597 190 ft 24 kts 180°
2026-04-29 19:08 16.73125 -22.94599 190 ft 0 kts 188°
2026-04-29 19:10 16.73040 -22.94666 190 ft 21 kts 220°
2026-04-29 19:10 16.72883 -22.94690 188 ft 25 kts 178°
2026-04-29 19:10 16.72674 -22.94689 185 ft 32 kts 180°
2026-04-29 19:11 16.72461 -22.94693 183 ft 22 kts 191°
2026-04-29 19:11 16.72401 -22.94806 183 ft 18 kts 274°
2026-04-29 19:11 16.72458 -22.94886 182 ft 12 kts
2026-04-29 19:11 16.72806 -22.94892 184 ft 97 kts 360°
2026-04-29 19:12 16.73740 -22.94903 237 ft 164 kts
2026-04-29 19:12 16.74923 -22.94896 1013 ft 175 kts
2026-04-29 19:12 16.76256 -22.94893 1523 ft 213 kts
2026-04-29 19:12 16.77283 -22.94897 1953 ft 231 kts
2026-04-29 19:13 16.79502 -22.94909 3201 ft 249 kts 360°
2026-04-29 19:13 16.81269 -22.94918 4172 ft 260 kts 358°
2026-04-29 19:13 16.83090 -22.94956 5124 ft 269 kts 351°
2026-04-29 19:13 16.84876 -22.95522 6113 ft 270 kts 326°
2026-04-29 19:14 16.86259 -22.96774 7082 ft 268 kts 303°
2026-04-29 19:14 16.87028 -22.98558 7725 ft 272 kts 277°
2026-04-29 19:14 16.87096 -23.00520 7963 ft 272 kts 268°
2026-04-29 19:14 16.87072 -23.02475 8013 ft 269 kts 268°
2026-04-29 19:15 16.87054 -23.04433 8014 ft 267 kts 268°
2026-04-29 19:15 16.87037 -23.06355 8023 ft 266 kts 268°
2026-04-29 19:15 16.87020 -23.08306 8013 ft 266 kts 269°
2026-04-29 19:15 16.87004 -23.10225 8011 ft 265 kts 268°
2026-04-29 19:16 16.86987 -23.12139 8016 ft 266 kts 268°
2026-04-29 19:16 16.86949 -23.14081 8018 ft 265 kts 265°
2026-04-29 19:16 16.86765 -23.16055 8191 ft 282 kts 263°
2026-04-29 19:16 16.86560 -23.18069 9273 ft 282 kts 263°
2026-04-29 19:17 16.86361 -23.20042 10422 ft 277 kts 263°
2026-04-29 19:17 16.86160 -23.22038 11306 ft 282 kts 264°
2026-04-29 19:17 16.85951 -23.24093 12150 ft 288 kts 264°
2026-04-29 19:17 16.85741 -23.26173 12962 ft 293 kts 265°
2026-04-29 19:18 16.85527 -23.28283 13765 ft 298 kts 265°
2026-04-29 19:18 16.85381 -23.29717 14304 ft 300 kts 265°
2026-04-29 19:18 16.85088 -23.32602 15412 ft 303 kts 265°
2026-04-29 19:18 16.84864 -23.34796 16188 ft 305 kts 265°
2026-04-29 19:19 16.84641 -23.36989 16924 ft 308 kts 265°
2026-04-29 19:19 16.84412 -23.39228 17649 ft 311 kts 265°
2026-04-29 19:19 16.84184 -23.41454 18374 ft 312 kts 265°
2026-04-29 19:19 16.83952 -23.43723 19085 ft 314 kts 265°
2026-04-29 19:20 16.83722 -23.45965 19761 ft 315 kts 265°
2026-04-29 19:20 16.83487 -23.48254 20408 ft 317 kts 265°
2026-04-29 19:20 16.83254 -23.50528 21019 ft 319 kts 265°
2026-04-29 19:20 16.83018 -23.52822 21600 ft 321 kts 265°
2026-04-29 19:21 16.82777 -23.55160 22173 ft 324 kts 265°
2026-04-29 19:21 16.82538 -23.57486 22743 ft 325 kts 265°
2026-04-29 19:21 16.82296 -23.59831 23299 ft 328 kts 266°
2026-04-29 19:21 16.82051 -23.62202 23858 ft 331 kts 266°
2026-04-29 19:22 16.81788 -23.64572 24451 ft 332 kts 263°
2026-04-29 19:22 16.81255 -23.66931 25006 ft 337 kts 258°
2026-04-29 19:22 16.80639 -23.69309 25537 ft 339 kts 258°
2026-04-29 19:22 16.80028 -23.71683 26061 ft 342 kts 258°
2026-04-29 19:23 16.79411 -23.74086 26555 ft 344 kts 258°
2026-04-29 19:23 16.78793 -23.76492 27064 ft 346 kts 259°
2026-04-29 19:23 16.78171 -23.78916 27549 ft 348 kts 259°
2026-04-29 19:23 16.77537 -23.81388 28035 ft 350 kts 259°
2026-04-29 19:24 16.76905 -23.83850 28491 ft 352 kts 259°
2026-04-29 19:24 16.76273 -23.86312 28923 ft 355 kts 259°
2026-04-29 19:24 16.75635 -23.88797 29351 ft 357 kts 259°
2026-04-29 19:24 16.74991 -23.91304 29778 ft 359 kts 259°
2026-04-29 19:25 16.74336 -23.93858 30190 ft 361 kts 259°
2026-04-29 19:25 16.73689 -23.96373 30584 ft 363 kts 258°
2026-04-29 19:25 16.73033 -23.98927 30994 ft 365 kts 258°
2026-04-29 19:25 16.72377 -24.01477 31371 ft 366 kts 258°
2026-04-29 19:26 16.71703 -24.04098 31723 ft 368 kts 258°
2026-04-29 19:26 16.71036 -24.06687 32055 ft 370 kts 258°
2026-04-29 19:26 16.70359 -24.09319 32371 ft 372 kts 258°
2026-04-29 19:26 16.69685 -24.11938 32664 ft 375 kts 258°
2026-04-29 19:27 16.69000 -24.14594 33000 ft 376 kts 257°
2026-04-29 19:27 16.68314 -24.17256 33348 ft 377 kts 258°
2026-04-29 19:27 16.67629 -24.19912 33665 ft 378 kts 257°
2026-04-29 19:27 16.66942 -24.22572 34004 ft 378 kts 258°
2026-04-29 19:28 16.66250 -24.25251 34424 ft 377 kts 257°
2026-04-29 19:28 16.65566 -24.27896 34851 ft 375 kts 257°
2026-04-29 19:28 16.64884 -24.30535 35274 ft 372 kts 258°
2026-04-29 19:28 16.64214 -24.33122 35678 ft 370 kts 257°
2026-04-29 19:29 16.63549 -24.35693 36005 ft 369 kts 257°
2026-04-29 19:29 16.62875 -24.38296 36322 ft 368 kts 257°
2026-04-29 19:29 16.62209 -24.40865 36643 ft 366 kts 257°
2026-04-29 19:29 16.61547 -24.43420 36897 ft 366 kts 257°
2026-04-29 19:30 16.60882 -24.45985 37124 ft 366 kts 257°
2026-04-29 19:30 16.60218 -24.48546 37336 ft 366 kts 257°
2026-04-29 19:30 16.59547 -24.51133 37576 ft 366 kts 257°
2026-04-29 19:30 16.58882 -24.53693 37827 ft 364 kts 257°
2026-04-29 19:31 16.58223 -24.56230 38060 ft 363 kts 257°
2026-04-29 19:31 16.57555 -24.58800 38268 ft 363 kts 257°
2026-04-29 19:31 16.56900 -24.61318 38482 ft 362 kts 257°
2026-04-29 19:31 16.56240 -24.63854 38640 ft 362 kts 257°
2026-04-29 19:32 16.55582 -24.66381 38813 ft 362 kts 257°
2026-04-29 19:32 16.54920 -24.68920 39019 ft 361 kts 257°
2026-04-29 19:32 16.54258 -24.71461 39192 ft 361 kts 257°
2026-04-29 19:32 16.53604 -24.73971 39388 ft 360 kts 257°
2026-04-29 19:33 16.52943 -24.76504 39554 ft 360 kts 257°
2026-04-29 19:33 16.52286 -24.79020 39750 ft 359 kts 257°
2026-04-29 19:33 16.51629 -24.81536 39891 ft 359 kts 257°
2026-04-29 19:34 16.50304 -24.86607 39974 ft 363 kts 257°
2026-04-29 19:34 16.48972 -24.91699 39983 ft 368 kts 257°
2026-04-29 19:35 16.47618 -24.96871 39980 ft 372 kts 257°
2026-04-29 19:35 16.46242 -25.02121 39974 ft 377 kts 257°
2026-04-29 19:36 16.44849 -25.07428 39970 ft 381 kts 257°
2026-04-29 19:36 16.43445 -25.12772 39972 ft 384 kts 257°
2026-04-29 19:37 16.42033 -25.18144 39976 ft 388 kts 257°
2026-04-29 19:37 16.40602 -25.23577 39974 ft 391 kts 257°
2026-04-29 19:38 16.39154 -25.29072 39978 ft 394 kts 257°
2026-04-29 19:38 16.37700 -25.34578 39978 ft 396 kts 257°
2026-04-29 19:39 16.36235 -25.40123 39975 ft 398 kts 257°
2026-04-29 19:39 16.34760 -25.45701 39972 ft 400 kts 257°
2026-04-29 19:40 16.33275 -25.51309 39970 ft 401 kts 257°
2026-04-29 19:40 16.31791 -25.56906 39969 ft 402 kts 257°
2026-04-29 19:41 16.30292 -25.62555 39973 ft 403 kts 257°
2026-04-29 19:41 16.28800 -25.68168 39981 ft 405 kts 257°
2026-04-29 19:42 16.27294 -25.73831 39986 ft 406 kts 256°
2026-04-29 19:42 16.25781 -25.79514 39990 ft 407 kts 257°
2026-04-29 19:43 16.24265 -25.85199 39988 ft 408 kts 257°
2026-04-29 19:43 16.22737 -25.90924 39988 ft 409 kts 257°
2026-04-29 19:44 16.21208 -25.96646 39986 ft 410 kts 257°
2026-04-29 19:44 16.19677 -26.02367 39986 ft 411 kts 257°
2026-04-29 19:45 16.18133 -26.08135 39987 ft 412 kts 257°
2026-04-29 19:45 16.16587 -26.13903 39988 ft 413 kts 257°
2026-04-29 19:46 16.15038 -26.19673 39988 ft 414 kts 257°
2026-04-29 19:46 16.13431 -26.25422 39988 ft 416 kts 252°
2026-04-29 19:47 16.10749 -26.30808 39987 ft 422 kts 242°
2026-04-29 19:47 16.07665 -26.36002 39989 ft 423 kts 242°
2026-04-29 19:48 16.04569 -26.41223 39988 ft 423 kts 242°
2026-04-29 19:48 16.01458 -26.46470 39991 ft 424 kts 243°
2026-04-29 19:49 15.98340 -26.51727 39988 ft 425 kts 242°
2026-04-29 19:49 15.95230 -26.56967 39985 ft 426 kts 242°
2026-04-29 19:50 15.92133 -26.62185 39985 ft 427 kts 243°
2026-04-29 19:50 15.88996 -26.67465 39987 ft 428 kts 242°
2026-04-29 19:51 15.85860 -26.72744 39988 ft 430 kts 242°
2026-04-29 19:51 15.82696 -26.78063 39986 ft 432 kts 242°
2026-04-29 19:52 15.79536 -26.83375 39984 ft 434 kts 242°
2026-04-29 19:52 15.76343 -26.88735 39984 ft 435 kts 242°
2026-04-29 19:53 15.73143 -26.94106 39984 ft 437 kts 242°
2026-04-29 19:53 15.69927 -26.99500 39986 ft 438 kts 242°
2026-04-29 19:54 15.65066 -27.07645 39984 ft 440 kts 242°
2026-04-29 19:54 15.61814 -27.13088 39974 ft 440 kts 242°
2026-04-29 19:55 15.58574 -27.18506 39984 ft 440 kts 242°
2026-04-29 19:55 15.55357 -27.23885 39981 ft 441 kts 242°
2026-04-29 19:56 15.52092 -27.29339 39977 ft 441 kts 242°
2026-04-29 19:56 15.48829 -27.34786 39981 ft 441 kts 242°
2026-04-29 19:57 15.46122 -27.39301 39979 ft 441 kts 242°
2026-04-29 19:57 15.42325 -27.45631 39980 ft 440 kts 242°
2026-04-29 19:58 15.39078 -27.51040 39977 ft 440 kts 242°
2026-04-29 19:58 15.35820 -27.56464 39972 ft 441 kts 242°
2026-04-29 19:59 15.32561 -27.61885 39973 ft 441 kts 242°
2026-04-29 19:59 15.29301 -27.67303 39974 ft 442 kts 241°
2026-04-29 20:00 15.26001 -27.72786 39968 ft 442 kts 241°
2026-04-29 20:00 15.22734 -27.78208 39970 ft 442 kts 241°
2026-04-29 20:01 15.19477 -27.83610 39962 ft 443 kts 241°
2026-04-29 20:01 15.16187 -27.89064 39965 ft 443 kts 241°
2026-04-29 20:02 15.12935 -27.94451 39967 ft 443 kts 241°
2026-04-29 20:02 15.10188 -27.98998 39967 ft 443 kts 241°
2026-04-29 20:03 15.06383 -28.05292 39965 ft 443 kts 241°
2026-04-29 20:03 15.03103 -28.10714 39968 ft 444 kts 241°
2026-04-29 20:04 14.99824 -28.16130 39970 ft 444 kts 241°
2026-04-29 20:04 14.96538 -28.21554 39966 ft 444 kts 241°
2026-04-29 20:05 14.93241 -28.26992 39966 ft 444 kts 241°
2026-04-29 20:05 14.89967 -28.32390 39968 ft 444 kts 241°
2026-04-29 20:06 14.86664 -28.37831 39967 ft 444 kts 241°
2026-04-29 20:06 14.83318 -28.43249 39967 ft 446 kts 238°
2026-04-29 20:07 14.79126 -28.48024 39965 ft 453 kts 225°
2026-04-29 20:07 14.73848 -28.51686 39962 ft 459 kts 214°
2026-04-29 20:08 14.69134 -28.54396 39959 ft 459 kts 214°
2026-04-29 20:08 14.62582 -28.58167 39962 ft 460 kts 213°
2026-04-29 20:09 14.56959 -28.61401 39956 ft 460 kts 213°
2026-04-29 20:09 14.51354 -28.64623 39957 ft 461 kts 213°
2026-04-29 20:10 14.45725 -28.67857 39960 ft 462 kts 213°
2026-04-29 20:10 14.40073 -28.71101 39961 ft 462 kts 213°
2026-04-29 20:11 14.34417 -28.74346 39960 ft 462 kts 213°
2026-04-29 20:11 14.28762 -28.77589 39962 ft 463 kts 213°
2026-04-29 20:12 14.23106 -28.80830 39962 ft 463 kts 213°
2026-04-29 20:12 14.17441 -28.84074 39956 ft 463 kts 213°
2026-04-29 20:13 14.12718 -28.86778 39968 ft 463 kts 213°
2026-04-29 20:13 14.06101 -28.90563 39966 ft 463 kts 213°
2026-04-29 20:14 14.00482 -28.93776 39970 ft 463 kts 213°
2026-04-29 20:14 13.94819 -28.97011 39971 ft 463 kts 212°
2026-04-29 20:15 13.89170 -29.00237 39968 ft 463 kts 212°
2026-04-29 20:15 13.83474 -29.03488 39961 ft 464 kts 212°
2026-04-29 20:16 13.77811 -29.06718 39963 ft 464 kts 212°
2026-04-29 20:16 13.72123 -29.09961 39961 ft 464 kts 212°
2026-04-29 20:17 13.66430 -29.13205 39957 ft 464 kts 212°
2026-04-29 20:17 13.60732 -29.16449 39960 ft 464 kts 212°
2026-04-29 20:18 13.55051 -29.19682 39964 ft 464 kts 212°
2026-04-29 20:18 13.49387 -29.22904 39973 ft 464 kts 212°
2026-04-29 20:19 13.43718 -29.26127 39969 ft 464 kts 212°
2026-04-29 20:19 13.38052 -29.29347 39967 ft 464 kts 212°
2026-04-29 20:20 13.32353 -29.32582 39967 ft 465 kts 212°
2026-04-29 20:20 13.26665 -29.35810 39966 ft 465 kts 212°
2026-04-29 20:21 13.20988 -29.39030 39968 ft 465 kts 212°
2026-04-29 20:21 13.15298 -29.42256 39965 ft 465 kts 212°
2026-04-29 20:22 13.09573 -29.45499 39965 ft 465 kts 212°
2026-04-29 20:22 13.03895 -29.48714 39972 ft 464 kts 212°
2026-04-29 20:23 12.98229 -29.51921 39969 ft 465 kts 212°
2026-04-29 20:23 12.92535 -29.55141 39953 ft 465 kts 212°
2026-04-29 20:24 12.87119 -29.58205 39964 ft 465 kts 212°
2026-04-29 20:24 12.81427 -29.61421 39962 ft 466 kts 212°
2026-04-29 20:25 12.75719 -29.64644 39962 ft 465 kts 212°
2026-04-29 20:25 12.70020 -29.67861 39962 ft 465 kts 211°
2026-04-29 20:26 12.64329 -29.71071 39960 ft 465 kts 211°
2026-04-29 20:26 12.58635 -29.74281 39959 ft 465 kts 211°
2026-04-29 20:27 12.53855 -29.76975 39959 ft 465 kts 212°
2026-04-29 20:27 12.47194 -29.80727 39952 ft 465 kts 211°
2026-04-29 20:28 12.41494 -29.83936 39957 ft 465 kts 211°
2026-04-29 20:28 12.35803 -29.87138 39959 ft 465 kts 211°
2026-04-29 20:29 12.30082 -29.90355 39949 ft 465 kts 211°
2026-04-29 20:29 12.24381 -29.93560 39945 ft 465 kts 211°
2026-04-29 20:30 12.18673 -29.96766 39950 ft 465 kts 211°
2026-04-29 20:30 12.12973 -29.99967 39945 ft 465 kts 211°
2026-04-29 20:31 12.07214 -30.03198 39947 ft 465 kts 211°
2026-04-29 20:31 12.01642 -30.06324 39943 ft 465 kts 211°
2026-04-29 20:32 11.96193 -30.09380 39953 ft 465 kts 211°
2026-04-29 20:32 11.91412 -30.12059 39948 ft 465 kts 211°
2026-04-29 20:33 11.84734 -30.15799 39951 ft 465 kts 211°
2026-04-29 20:33 11.79024 -30.18996 39946 ft 465 kts 211°
2026-04-29 20:34 11.73317 -30.22189 39943 ft 465 kts 211°
2026-04-29 20:34 11.67610 -30.25381 39940 ft 465 kts 211°
2026-04-29 20:35 11.61912 -30.28567 39945 ft 465 kts 211°
2026-04-29 20:35 11.56197 -30.31760 39938 ft 465 kts 211°
2026-04-29 20:36 11.50537 -30.34921 39935 ft 465 kts 211°
2026-04-29 20:36 11.44813 -30.38116 39939 ft 466 kts 211°
2026-04-29 20:37 11.39141 -30.41281 39936 ft 466 kts 211°
2026-04-29 20:37 11.33426 -30.44468 39933 ft 466 kts 211°
2026-04-29 20:38 11.27675 -30.47674 39935 ft 466 kts 211°
2026-04-29 20:38 11.21956 -30.50860 39932 ft 467 kts 211°
2026-04-29 20:39 11.16225 -30.54052 39931 ft 467 kts 211°
2026-04-29 20:39 11.10470 -30.57256 39929 ft 468 kts 211°
2026-04-29 20:40 11.04730 -30.60450 39930 ft 468 kts 211°
2026-04-29 20:40 10.98951 -30.63664 39929 ft 468 kts 211°
2026-04-29 20:41 10.93215 -30.66853 39943 ft 468 kts 211°
2026-04-29 20:41 10.87455 -30.70053 39948 ft 469 kts 211°
2026-04-29 20:42 10.81715 -30.73242 39948 ft 469 kts 211°
2026-04-29 20:42 10.75960 -30.76444 39949 ft 469 kts 211°
2026-04-29 20:43 10.70200 -30.79671 39948 ft 469 kts 211°
2026-04-29 20:43 10.64439 -30.82898 39950 ft 470 kts 211°
2026-04-29 20:44 10.58721 -30.86100 39944 ft 470 kts 211°
2026-04-29 20:44 10.52941 -30.89293 39943 ft 470 kts 211°
2026-04-29 20:45 10.47140 -30.92490 39948 ft 469 kts 211°
2026-04-29 20:45 10.41403 -30.95650 39946 ft 469 kts 211°
2026-04-29 20:46 10.35601 -30.98844 39948 ft 470 kts 211°
2026-04-29 20:46 10.29814 -31.02030 39948 ft 470 kts 211°
2026-04-29 20:47 10.24043 -31.05204 39948 ft 470 kts 211°
2026-04-29 20:47 10.18265 -31.08382 39952 ft 470 kts 211°
2026-04-29 20:48 10.12472 -31.11566 39952 ft 469 kts 211°
2026-04-29 20:48 10.06697 -31.14740 39952 ft 470 kts 211°
2026-04-29 20:49 10.00923 -31.17911 39948 ft 470 kts 211°
2026-04-29 20:49 9.95159 -31.21076 39949 ft 470 kts 211°
2026-04-29 20:50 9.89383 -31.24247 39941 ft 469 kts 210°
2026-04-29 20:50 9.83590 -31.27424 39934 ft 469 kts 211°
2026-04-29 20:51 9.77827 -31.30585 39933 ft 469 kts 210°
2026-04-29 20:51 9.72040 -31.33758 39930 ft 469 kts 210°
2026-04-29 20:52 9.66291 -31.36908 39927 ft 469 kts 210°
2026-04-29 20:52 9.60524 -31.40067 39925 ft 469 kts 210°
2026-04-29 20:53 9.54746 -31.43231 39927 ft 469 kts 210°
2026-04-29 20:53 9.48961 -31.46398 39920 ft 469 kts 210°
2026-04-29 20:54 9.40312 -31.51130 39925 ft 469 kts 210°
2026-04-29 20:55 9.34577 -31.54266 39923 ft 469 kts 210°
2026-04-29 20:55 9.28763 -31.57445 39928 ft 469 kts 210°
2026-04-29 20:56 9.23013 -31.60587 39925 ft 469 kts 210°
2026-04-29 20:56 9.17215 -31.63754 39926 ft 469 kts 210°
2026-04-29 20:57 9.11435 -31.66910 39924 ft 470 kts 210°
2026-04-29 20:57 9.05664 -31.70061 39923 ft 470 kts 210°
2026-04-29 20:58 8.99837 -31.73241 39924 ft 470 kts 210°
2026-04-29 20:58 8.94028 -31.76410 39926 ft 470 kts 210°
2026-04-29 20:59 8.88233 -31.79571 39930 ft 470 kts 210°
2026-04-29 20:59 8.82463 -31.82716 39926 ft 470 kts 210°
2026-04-29 21:00 8.76666 -31.85875 39923 ft 470 kts 210°
2026-04-29 21:00 8.70909 -31.89012 39919 ft 470 kts 210°
2026-04-29 21:01 8.65098 -31.92177 39926 ft 470 kts 210°
2026-04-29 21:01 8.59351 -31.95305 39936 ft 470 kts 210°
2026-04-29 21:02 8.53542 -31.98467 39937 ft 470 kts 209°
2026-04-29 21:02 8.47770 -32.01608 39939 ft 469 kts 210°
2026-04-29 21:03 8.41971 -32.04762 39933 ft 468 kts 209°
2026-04-29 21:03 8.36216 -32.07891 39930 ft 467 kts 209°
2026-04-29 21:04 8.30481 -32.11008 39931 ft 467 kts 209°
2026-04-29 21:04 8.24750 -32.14123 39930 ft 467 kts 209°
2026-04-29 21:05 8.18999 -32.17247 39928 ft 466 kts 209°
2026-04-29 21:05 8.13268 -32.20359 39929 ft 466 kts 209°
2026-04-29 21:06 8.07502 -32.23489 39930 ft 466 kts 209°
2026-04-29 21:06 8.01769 -32.26601 39932 ft 466 kts 209°
2026-04-29 21:07 7.96026 -32.29717 39931 ft 466 kts 209°
2026-04-29 21:07 7.91271 -32.32296 39932 ft 467 kts 209°
2026-04-29 21:08 7.84537 -32.35947 39925 ft 468 kts 209°
2026-04-29 21:08 7.78740 -32.39090 39928 ft 468 kts 209°
2026-04-29 21:09 7.73005 -32.42198 39927 ft 468 kts 210°
2026-04-29 21:09 7.67232 -32.45326 39924 ft 469 kts 210°
2026-04-29 21:10 7.61466 -32.48449 39925 ft 469 kts 210°
2026-04-29 21:10 7.55651 -32.51597 39923 ft 470 kts 210°
2026-04-29 21:11 7.49905 -32.54707 39923 ft 470 kts 210°
2026-04-29 21:11 7.44092 -32.57853 39931 ft 471 kts 210°
2026-04-29 21:12 7.38317 -32.60977 39922 ft 471 kts 210°
2026-04-29 21:12 7.32531 -32.64106 39924 ft 470 kts 210°
2026-04-29 21:13 7.26726 -32.67244 39931 ft 470 kts 210°
2026-04-29 21:13 7.20897 -32.70395 39931 ft 471 kts 210°
2026-04-29 21:14 7.15079 -32.73538 39926 ft 471 kts 210°
2026-04-29 21:14 7.09279 -32.76672 39928 ft 472 kts 210°
2026-04-29 21:15 7.03409 -32.79842 39927 ft 472 kts 210°
2026-04-29 21:15 6.97628 -32.82963 39924 ft 471 kts 210°
2026-04-29 21:16 6.91799 -32.86109 39928 ft 471 kts 210°
2026-04-29 21:16 6.85971 -32.89254 39926 ft 472 kts 210°
2026-04-29 21:17 6.80118 -32.92411 39927 ft 472 kts 210°
2026-04-29 21:17 6.74321 -32.95538 39924 ft 472 kts 210°
2026-04-29 21:18 6.68489 -32.98682 39926 ft 471 kts 210°
2026-04-29 21:18 6.62690 -33.01808 39929 ft 471 kts 210°
2026-04-29 21:19 6.56874 -33.04942 39925 ft 471 kts 210°
2026-04-29 21:19 6.51065 -33.08071 39930 ft 471 kts 210°
2026-04-29 21:20 6.45231 -33.11214 39928 ft 471 kts 210°
2026-04-29 21:20 6.39423 -33.14341 39927 ft 472 kts 210°
2026-04-29 21:21 6.33598 -33.17476 39927 ft 472 kts 210°
2026-04-29 21:21 6.27776 -33.20594 39926 ft 472 kts 210°
2026-04-29 21:22 6.21983 -33.23695 39930 ft 472 kts 210°
2026-04-29 21:22 6.16127 -33.26829 39926 ft 472 kts 210°
2026-04-29 21:23 6.10293 -33.29950 39930 ft 472 kts 210°
2026-04-29 21:23 6.04486 -33.33056 39927 ft 471 kts 210°
2026-04-29 21:24 5.98628 -33.36189 39916 ft 471 kts 210°
2026-04-29 21:24 5.92793 -33.39308 39905 ft 472 kts 210°
2026-04-29 21:25 5.86993 -33.42409 39906 ft 472 kts 210°
2026-04-29 21:25 5.81166 -33.45523 39909 ft 472 kts 210°
2026-04-29 21:26 5.75334 -33.48638 39908 ft 472 kts 210°
2026-04-29 21:26 5.69543 -33.51732 39905 ft 472 kts 210°
2026-04-29 21:27 5.64655 -33.54342 39908 ft 472 kts 210°
2026-04-29 21:27 5.57834 -33.57983 39907 ft 473 kts 210°
2026-04-29 21:28 5.51962 -33.61117 39906 ft 473 kts 210°
2026-04-29 21:28 5.46151 -33.64218 39905 ft 473 kts 210°
2026-04-29 21:29 5.40270 -33.67355 39909 ft 473 kts 209°
2026-04-29 21:29 5.34397 -33.70487 39906 ft 473 kts 210°
2026-04-29 21:30 5.28590 -33.73584 39909 ft 473 kts 209°
2026-04-29 21:30 5.22788 -33.76677 39907 ft 473 kts 210°
2026-04-29 21:31 5.16901 -33.79815 39907 ft 473 kts 210°
2026-04-29 21:31 5.11061 -33.82927 39907 ft 474 kts 209°
2026-04-29 21:32 5.05183 -33.86058 39906 ft 474 kts 210°
2026-04-29 21:32 4.99329 -33.89176 39907 ft 474 kts 210°
2026-04-29 21:33 4.93495 -33.92282 39906 ft 474 kts 209°
2026-04-29 21:33 4.87610 -33.95416 39906 ft 473 kts 209°
2026-04-29 21:34 4.81750 -33.98534 39909 ft 473 kts 210°
2026-04-29 21:34 4.75928 -34.01633 39906 ft 473 kts 210°
2026-04-29 21:35 4.70060 -34.04755 39905 ft 473 kts 210°
2026-04-29 21:35 4.64196 -34.07874 39908 ft 473 kts 210°
2026-04-29 21:36 4.58344 -34.10986 39910 ft 473 kts 210°
2026-04-29 21:36 4.52526 -34.14079 39906 ft 473 kts 210°
2026-04-29 21:37 4.46676 -34.17200 39906 ft 472 kts 210°
2026-04-29 21:37 4.40861 -34.20316 39910 ft 472 kts 210°
2026-04-29 21:38 4.35020 -34.23444 39912 ft 472 kts 210°
2026-04-29 21:38 4.29209 -34.26556 39913 ft 472 kts 210°
2026-04-29 21:39 4.23373 -34.29681 39910 ft 471 kts 210°
2026-04-29 21:39 4.17570 -34.32787 39911 ft 471 kts 210°
2026-04-29 21:40 4.11783 -34.35885 39910 ft 470 kts 210°
2026-04-29 21:40 4.05966 -34.38997 39907 ft 471 kts 210°
2026-04-29 21:41 4.00160 -34.42103 39891 ft 471 kts 211°
2026-04-29 21:41 3.94350 -34.45211 39884 ft 471 kts 211°
2026-04-29 21:42 3.88544 -34.48316 39885 ft 471 kts 211°
2026-04-29 21:42 3.83720 -34.50896 39886 ft 470 kts 211°
2026-04-29 21:43 3.76941 -34.54520 39891 ft 470 kts 211°
2026-04-29 21:43 3.71140 -34.57621 39891 ft 470 kts 211°
2026-04-29 21:44 3.65346 -34.60717 39892 ft 470 kts 211°
2026-04-29 21:44 3.59596 -34.63790 39889 ft 469 kts 211°
2026-04-29 21:45 3.53803 -34.66884 39890 ft 469 kts 211°
2026-04-29 21:45 3.47972 -34.69999 39895 ft 469 kts 211°
2026-04-29 21:46 3.42229 -34.73066 39888 ft 469 kts 211°
2026-04-29 21:46 3.36430 -34.76163 39884 ft 469 kts 211°
2026-04-29 21:47 3.30636 -34.79256 39892 ft 469 kts 211°
2026-04-29 21:47 3.24881 -34.82328 39894 ft 469 kts 211°
2026-04-29 21:48 3.19066 -34.85431 39889 ft 470 kts 211°
2026-04-29 21:48 3.13274 -34.88522 39890 ft 470 kts 211°
2026-04-29 21:49 3.07443 -34.91634 39888 ft 470 kts 211°
2026-04-29 21:49 3.01660 -34.94719 39893 ft 470 kts 211°
2026-04-29 21:50 2.95838 -34.97825 39903 ft 470 kts 211°
2026-04-29 21:50 2.90037 -35.00918 39906 ft 470 kts 211°
2026-04-29 21:51 2.84251 -35.04005 39904 ft 470 kts 211°
2026-04-29 21:51 2.75546 -35.08646 39908 ft 470 kts 211°
2026-04-29 21:52 2.69777 -35.11721 39908 ft 470 kts 211°
2026-04-29 21:52 2.63983 -35.14796 39903 ft 471 kts 210°
2026-04-29 21:53 2.58117 -35.17909 39905 ft 471 kts 211°
2026-04-29 21:53 2.52283 -35.21004 39905 ft 471 kts 210°
2026-04-29 21:54 2.46474 -35.24085 39905 ft 471 kts 210°
2026-04-29 21:54 2.40658 -35.27171 39906 ft 471 kts 210°
2026-04-29 21:55 2.34840 -35.30256 39906 ft 471 kts 210°
2026-04-29 21:55 2.29037 -35.33333 39905 ft 472 kts 210°
2026-04-29 21:56 2.23218 -35.36418 39908 ft 472 kts 210°
2026-04-29 21:56 2.17427 -35.39489 39907 ft 472 kts 210°
2026-04-29 21:57 2.11613 -35.42571 39903 ft 472 kts 210°
2026-04-29 21:57 2.05767 -35.45670 39900 ft 472 kts 210°
2026-04-29 21:58 1.99955 -35.48751 39885 ft 472 kts 210°
2026-04-29 21:58 1.94102 -35.51853 39881 ft 472 kts 210°
2026-04-29 21:59 1.88281 -35.54938 39888 ft 472 kts 210°
2026-04-29 21:59 1.82438 -35.58034 39884 ft 472 kts 210°
2026-04-29 22:00 1.76583 -35.61137 39885 ft 472 kts 210°
2026-04-29 22:00 1.70782 -35.64210 39886 ft 472 kts 210°
2026-04-29 22:01 1.64937 -35.67307 39889 ft 472 kts 210°
2026-04-29 22:01 1.59113 -35.70393 39885 ft 472 kts 210°
2026-04-29 22:02 1.53281 -35.73482 39883 ft 472 kts 209°
2026-04-29 22:02 1.47460 -35.76565 39887 ft 472 kts 210°
2026-04-29 22:03 1.41617 -35.79660 39885 ft 472 kts 209°
2026-04-29 22:03 1.35773 -35.82755 39887 ft 471 kts 209°
2026-04-29 22:04 1.29981 -35.85823 39884 ft 471 kts 209°
2026-04-29 22:04 1.24177 -35.88897 39886 ft 470 kts 209°
2026-04-29 22:05 1.18345 -35.91985 39888 ft 471 kts 209°
2026-04-29 22:06 1.09603 -35.96614 39885 ft 472 kts 209°
2026-04-29 22:06 1.03793 -35.99691 39886 ft 473 kts 209°
2026-04-29 22:07 0.97912 -36.02805 39885 ft 473 kts 209°
2026-04-29 22:07 0.92093 -36.05885 39884 ft 472 kts 209°
2026-04-29 22:08 0.86246 -36.08981 39886 ft 472 kts 209°
2026-04-29 22:08 0.80418 -36.12067 39891 ft 471 kts 209°
2026-04-29 22:09 0.74586 -36.15155 39898 ft 472 kts 209°
2026-04-29 22:09 0.68724 -36.18258 39899 ft 472 kts 209°
2026-04-29 22:10 0.62946 -36.21317 39902 ft 472 kts 208°
2026-04-29 22:10 0.57090 -36.24417 39902 ft 472 kts 209°
2026-04-29 22:11 0.51232 -36.27518 39906 ft 471 kts 209°
2026-04-29 22:11 0.45422 -36.30594 39908 ft 471 kts 208°
2026-04-29 22:12 0.39620 -36.33666 39905 ft 471 kts 209°
2026-04-29 22:12 0.33803 -36.36745 39909 ft 471 kts 208°
2026-04-29 22:13 0.27966 -36.39835 39907 ft 471 kts 208°
2026-04-29 22:13 0.22149 -36.42915 39906 ft 471 kts 208°
2026-04-29 22:14 0.16377 -36.45970 39899 ft 471 kts 208°
2026-04-29 22:14 0.10540 -36.49060 39894 ft 471 kts 208°
2026-04-29 22:15 0.04765 -36.52117 39888 ft 470 kts 208°
2026-04-29 22:15 -0.01063 -36.55203 39886 ft 470 kts 208°
2026-04-29 22:16 -0.06874 -36.58279 39887 ft 470 kts 208°
2026-04-29 22:16 -0.12673 -36.61349 39886 ft 471 kts 208°
2026-04-29 22:17 -0.18499 -36.64433 39885 ft 471 kts 208°
2026-04-29 22:17 -0.24303 -36.67506 39887 ft 471 kts 208°
2026-04-29 22:18 -0.30135 -36.70594 39885 ft 471 kts 208°
2026-04-29 22:18 -0.35934 -36.73664 39886 ft 471 kts 208°
2026-04-29 22:19 -0.41732 -36.76734 39886 ft 471 kts 208°
2026-04-29 22:19 -0.47532 -36.79805 39887 ft 471 kts 208°
2026-04-29 22:20 -0.53339 -36.82880 39885 ft 471 kts 208°
2026-04-29 22:20 -0.59168 -36.85966 39887 ft 471 kts 208°
2026-04-29 22:21 -0.65049 -36.89081 39884 ft 471 kts 208°
2026-04-29 22:21 -0.70870 -36.92163 39886 ft 472 kts 208°
2026-04-29 22:22 -0.76715 -36.95259 39884 ft 471 kts 208°
2026-04-29 22:22 -0.82531 -36.98340 39888 ft 471 kts 208°
2026-04-29 22:23 -0.88324 -37.01408 39885 ft 470 kts 208°
2026-04-29 22:23 -0.94152 -37.04491 39884 ft 469 kts 207°
2026-04-29 22:24 -1.00115 -37.07172 39885 ft 469 kts 203°
2026-04-29 22:24 -1.06156 -37.09771 39886 ft 469 kts 203°
2026-04-29 22:25 -1.12164 -37.12359 39885 ft 469 kts 203°
2026-04-29 22:25 -1.18218 -37.14970 39888 ft 470 kts 203°
2026-04-29 22:26 -1.24207 -37.17554 39887 ft 470 kts 203°
2026-04-29 22:26 -1.30249 -37.20163 39886 ft 470 kts 203°
2026-04-29 22:27 -1.36278 -37.22767 39885 ft 469 kts 203°
2026-04-29 22:27 -1.42323 -37.25379 39886 ft 469 kts 203°
2026-04-29 22:28 -1.48344 -37.27981 39885 ft 469 kts 203°
2026-04-29 22:28 -1.54350 -37.30577 39882 ft 470 kts 203°
2026-04-29 22:29 -1.59411 -37.32766 39879 ft 470 kts 203°
2026-04-29 22:29 -1.66476 -37.35821 39878 ft 470 kts 203°
2026-04-29 22:30 -1.72501 -37.38427 39878 ft 470 kts 203°
2026-04-29 22:30 -1.78529 -37.41034 39877 ft 470 kts 203°
2026-04-29 22:31 -1.84553 -37.43640 39867 ft 470 kts 203°
2026-04-29 22:31 -1.90599 -37.46256 39870 ft 470 kts 203°
2026-04-29 22:32 -1.96624 -37.48863 39875 ft 471 kts 203°
2026-04-29 22:32 -2.02673 -37.51481 39875 ft 471 kts 203°
2026-04-29 22:33 -2.08712 -37.54095 39875 ft 471 kts 203°
2026-04-29 22:33 -2.14740 -37.56704 39877 ft 472 kts 203°
2026-04-29 22:34 -2.20797 -37.59327 39884 ft 472 kts 203°
2026-04-29 22:34 -2.26888 -37.61963 39887 ft 472 kts 203°
2026-04-29 22:35 -2.32977 -37.64600 39886 ft 472 kts 203°
2026-04-29 22:35 -2.39042 -37.67227 39885 ft 472 kts 203°
2026-04-29 22:36 -2.45116 -37.69858 39481 ft 477 kts 203°
2026-04-29 22:36 -2.48176 -37.71183 38913 ft 472 kts 202°
2026-04-29 22:36 -2.51188 -37.72488 38357 ft 469 kts 202°
2026-04-29 22:36 -2.54173 -37.73782 37762 ft 468 kts 202°
2026-04-29 22:37 -2.57170 -37.75080 37155 ft 468 kts 202°
2026-04-29 22:37 -2.60161 -37.76376 36532 ft 469 kts 202°
2026-04-29 22:37 -2.63165 -37.77677 35910 ft 470 kts 202°
2026-04-29 22:37 -2.66177 -37.78982 35282 ft 472 kts 202°
2026-04-29 22:38 -2.69245 -37.80311 34645 ft 474 kts 202°
2026-04-29 22:38 -2.72270 -37.81622 34016 ft 476 kts 202°
2026-04-29 22:38 -2.75322 -37.82944 33381 ft 479 kts 202°
2026-04-29 22:38 -2.78396 -37.84277 32742 ft 481 kts 202°
2026-04-29 22:39 -2.81470 -37.85609 32112 ft 480 kts 202°
2026-04-29 22:39 -2.84559 -37.86948 31460 ft 476 kts 202°
2026-04-29 22:39 -2.87564 -37.88252 30833 ft 472 kts 202°
2026-04-29 22:39 -2.90593 -37.89565 30204 ft 467 kts 202°
2026-04-29 22:40 -2.93555 -37.90850 29585 ft 462 kts 202°
2026-04-29 22:40 -2.96480 -37.92119 28979 ft 457 kts 201°
2026-04-29 22:40 -2.99421 -37.93394 28373 ft 452 kts 201°
2026-04-29 22:40 -3.02310 -37.94647 27765 ft 448 kts 201°
2026-04-29 22:41 -3.05130 -37.95871 27177 ft 444 kts 201°
2026-04-29 22:41 -3.07992 -37.97111 26581 ft 441 kts 200°
2026-04-29 22:41 -3.10733 -37.98426 26011 ft 440 kts 208°
2026-04-29 22:41 -3.13169 -38.00271 25449 ft 440 kts 218°
2026-04-29 22:42 -3.15494 -38.02259 24875 ft 435 kts 217°
2026-04-29 22:42 -3.17815 -38.04233 24290 ft 432 kts 217°
2026-04-29 22:42 -3.20100 -38.06176 23718 ft 428 kts 217°
2026-04-29 22:42 -3.22337 -38.08078 23159 ft 424 kts 217°
2026-04-29 22:43 -3.24592 -38.09996 22589 ft 419 kts 217°
2026-04-29 22:43 -3.26823 -38.11893 22035 ft 415 kts 217°
2026-04-29 22:43 -3.28994 -38.13740 21482 ft 411 kts 217°
2026-04-29 22:43 -3.31192 -38.15609 20927 ft 407 kts 218°
2026-04-29 22:44 -3.33347 -38.17442 20382 ft 403 kts 218°
2026-04-29 22:44 -3.35467 -38.19244 19850 ft 399 kts 218°
2026-04-29 22:44 -3.37581 -38.21042 19321 ft 394 kts 218°
2026-04-29 22:44 -3.39665 -38.22816 18800 ft 390 kts 218°
2026-04-29 22:45 -3.41639 -38.24635 18236 ft 384 kts 229°
2026-04-29 22:45 -3.43183 -38.26798 17602 ft 375 kts 235°
2026-04-29 22:45 -3.44627 -38.28939 16983 ft 370 kts 235°
2026-04-29 22:45 -3.46076 -38.31072 16360 ft 368 kts 234°
2026-04-29 22:46 -3.47504 -38.33172 15691 ft 362 kts 234°
2026-04-29 22:46 -3.48910 -38.35240 14978 ft 358 kts 234°
2026-04-29 22:46 -3.50289 -38.37268 14255 ft 354 kts 234°
2026-04-29 22:46 -3.51669 -38.39296 13559 ft 349 kts 234°
2026-04-29 22:47 -3.53031 -38.41298 12845 ft 344 kts 234°
2026-04-29 22:47 -3.54355 -38.43243 12115 ft 341 kts 234°
2026-04-29 22:47 -3.55699 -38.45217 11387 ft 337 kts 234°
2026-04-29 22:47 -3.57004 -38.47133 10728 ft 331 kts 234°
2026-04-29 22:48 -3.58272 -38.48996 10310 ft 319 kts 234°
2026-04-29 22:48 -3.59499 -38.50799 9825 ft 311 kts 233°
2026-04-29 22:48 -3.60719 -38.52590 9289 ft 306 kts 233°
2026-04-29 22:48 -3.61913 -38.54342 8712 ft 301 kts 233°
2026-04-29 22:49 -3.63078 -38.56052 8126 ft 298 kts 232°
2026-04-29 22:49 -3.64108 -38.57854 7525 ft 298 kts 245°
2026-04-29 22:49 -3.64787 -38.59784 6949 ft 297 kts 251°
2026-04-29 22:49 -3.65291 -38.61797 6332 ft 295 kts 253°
2026-04-29 22:50 -3.65751 -38.63813 5729 ft 294 kts 256°
2026-04-29 22:50 -3.65944 -38.65840 5128 ft 293 kts 265°
2026-04-29 22:50 -3.66013 -38.67860 4539 ft 290 kts 266°
2026-04-29 22:50 -3.66082 -38.69848 4057 ft 283 kts 266°
2026-04-29 22:51 -3.66274 -38.71787 3525 ft 273 kts 249°
2026-04-29 22:51 -3.67270 -38.73267 3356 ft 242 kts 211°
2026-04-29 22:51 -3.70045 -38.73179 3029 ft 202 kts 133°
2026-04-29 22:52 -3.71032 -38.72117 3038 ft 208 kts 135°
2026-04-29 22:52 -3.72197 -38.71227 3009 ft 209 kts 147°
2026-04-29 22:52 -3.73433 -38.70456 3008 ft 207 kts 133°
2026-04-29 22:52 -3.74028 -38.69186 2902 ft 208 kts 95°
2026-04-29 22:53 -3.73989 -38.67714 2628 ft 208 kts 93°
2026-04-29 22:53 -3.74178 -38.66328 2373 ft 198 kts 103°
2026-04-29 22:53 -3.74500 -38.65012 2179 ft 183 kts 104°
2026-04-29 22:53 -3.74799 -38.63853 1903 ft 163 kts 104°
2026-04-29 22:54 -3.75064 -38.62851 1767 ft 132 kts 104°
2026-04-29 22:54 -3.75295 -38.61984 1566 ft 127 kts 104°
2026-04-29 22:54 -3.75520 -38.61144 1393 ft 123 kts 104°
2026-04-29 22:54 -3.75740 -38.60320 1242 ft 122 kts 104°
2026-04-29 22:55 -3.75961 -38.59493 1086 ft 123 kts 104°
2026-04-29 22:55 -3.76153 -38.58790 919 ft 122 kts 105°
2026-04-29 22:55 -3.76376 -38.57974 768 ft 122 kts 104°
2026-04-29 22:55 -3.76601 -38.57153 635 ft 122 kts 104°
2026-04-29 22:56 -3.76822 -38.56325 497 ft 122 kts 103°
2026-04-29 22:56 -3.77042 -38.55483 342 ft 126 kts 103°
2026-04-29 22:56 -3.77256 -38.54659 164 ft 123 kts 103°
2026-04-29 22:56 -3.77466 -38.53887 94 ft 102 kts 104°
2026-04-29 22:57 -3.77607 -38.53347 91 ft 53 kts 104°
2026-04-29 22:57 -3.77658 -38.53157 90 ft 7 kts 106°
2026-04-29 22:57 -3.77665 -38.53079 89 ft 14 kts 70°
2026-04-29 22:57 -3.77584 -38.53039 88 ft 10 kts 10°
2026-04-29 22:58 -3.77519 -38.53095 88 ft 18 kts 285°
2026-04-29 22:58 -3.77483 -38.53233 89 ft 22 kts 285°
2026-04-29 22:58 -3.77434 -38.53285 89 ft 9 kts 14°
2026-04-29 22:58 -3.77404 -38.53277 89 ft 0 kts 14°